When you browse on this site, cookies collect data to enhance your experience and personalize the content and advertising you see.
Visit our Privacy Policy to learn more. By continuing to use the site, you agree to this use of cookies and data.
  • In Belgien
  • Länderverzeichnis
  • Für 7 Tage
  • Wassertemperatur
  • Wetterkarte
  • Widgets
  • user-avatar
    Anmelden

    Stündliche Wetter Townsville

    Heute, 29 Mai, Freitag

    Zeit Temperatur Niederschläge Wind Luftdruck Luftfeuchtigkeit
    00:00 +17°C° 0 mm 2 m/S 757 mmHg 84%
    01:00 +17°C° 0 mm 2 m/S 757 mmHg 85%
    02:00 +17°C° 0 mm 2 m/S 757 mmHg 85%
    03:00 +17°C° 0 mm 2 m/S 757 mmHg 85%
    04:00 +17°C° 0 mm 2 m/S 756 mmHg 86%
    05:00 +17°C° 0 mm 2 m/S 757 mmHg 86%
    06:00 +17°C° 0 mm 2 m/S 757 mmHg 86%
    07:00 +17°C° 0 mm 2 m/S 757 mmHg 86%
    08:00 +19°C° 0 mm 2 m/S 758 mmHg 77%
    09:00 +21°C° 0 mm 2 m/S 758 mmHg 68%
    10:00 +24°C° 0 mm 2 m/S 758 mmHg 58%
    11:00 +25°C° 0 mm 2 m/S 758 mmHg 54%
    12:00 +26°C° 0 mm 2 m/S 757 mmHg 50%
    13:00 +27°C° 0 mm 2 m/S 756 mmHg 46%
    14:00 +26°C° 0 mm 3 m/S 756 mmHg 48%
    15:00 +26°C° 0 mm 3 m/S 756 mmHg 51%
    16:00 +26°C° 0 mm 3 m/S 756 mmHg 53%
    17:00 +24°C° 0 mm 3 m/S 756 mmHg 61%
    18:00 +21°C° 0 mm 3 m/S 756 mmHg 68%
    19:00 +20°C° 0 mm 2 m/S 757 mmHg 76%
    20:00 +19°C° 0 mm 2 m/S 757 mmHg 78%
    21:00 +19°C° 0 mm 3 m/S 757 mmHg 80%
    22:00 +19°C° 0 mm 3 m/S 758 mmHg 82%
    23:00 +18°C° 0 mm 2 m/S 757 mmHg 83%

    Morgen, 30 Mai, Samstag

    Zeit Temperatur Niederschläge Wind Luftdruck Luftfeuchtigkeit
    00:00 +18°C° 0 mm 2 m/S 757 mmHg 84%
    01:00 +18°C° 0 mm 2 m/S 757 mmHg 85%
    02:00 +18°C° 0 mm 2 m/S 757 mmHg 85%
    03:00 +18°C° 0 mm 2 m/S 757 mmHg 85%
    04:00 +18°C° 0 mm 2 m/S 757 mmHg 85%
    05:00 +17°C° 0 mm 2 m/S 757 mmHg 85%
    06:00 +17°C° 0 mm 2 m/S 757 mmHg 85%
    07:00 +17°C° 0 mm 3 m/S 758 mmHg 85%
    08:00 +19°C° 0 mm 3 m/S 758 mmHg 78%
    09:00 +22°C° 0 mm 3 m/S 758 mmHg 71%
    10:00 +25°C° 0 mm 3 m/S 758 mmHg 64%
    11:00 +25°C° 0 mm 3 m/S 758 mmHg 63%
    12:00 +26°C° 0 mm 4 m/S 757 mmHg 62%
    13:00 +26°C° 0 mm 4 m/S 756 mmHg 62%
    14:00 +26°C° 0 mm 4 m/S 756 mmHg 63%
    15:00 +26°C° 0 mm 4 m/S 756 mmHg 65%
    16:00 +26°C° 0 mm 4 m/S 756 mmHg 67%
    17:00 +25°C° 0 mm 4 m/S 756 mmHg 72%
    18:00 +22°C° 0 mm 4 m/S 756 mmHg 77%
    19:00 +21°C° 0 mm 4 m/S 756 mmHg 82%
    20:00 +21°C° 0 mm 4 m/S 757 mmHg 84%
    21:00 +20°C° 0 mm 4 m/S 757 mmHg 86%
    22:00 +20°C° 0 mm 4 m/S 757 mmHg 87%
    23:00 +20°C° 0 mm 3 m/S 757 mmHg 88%

    übermorgen, 31 Mai, Sonntag

    Zeit Temperatur Niederschläge Wind Luftdruck Luftfeuchtigkeit
    00:00 +19°C° 0 mm 3 m/S 757 mmHg 89%
    01:00 +19°C° 0 mm 3 m/S 757 mmHg 91%
    02:00 +19°C° 0 mm 3 m/S 756 mmHg 91%
    03:00 +18°C° 0 mm 3 m/S 756 mmHg 92%
    04:00 +18°C° 0 mm 3 m/S 756 mmHg 93%
    05:00 +18°C° 0 mm 3 m/S 756 mmHg 93%
    06:00 +18°C° 0 mm 3 m/S 756 mmHg 94%
    07:00 +18°C° 0 mm 3 m/S 757 mmHg 94%
    08:00 +20°C° 0 mm 3 m/S 757 mmHg 85%
    09:00 +22°C° 0 mm 3 m/S 757 mmHg 77%
    10:00 +25°C° 0 mm 3 m/S 757 mmHg 69%
    11:00 +25°C° 0 mm 3 m/S 757 mmHg 65%
    12:00 +26°C° 0 mm 3 m/S 756 mmHg 62%
    13:00 +27°C° 0 mm 4 m/S 756 mmHg 59%
    14:00 +27°C° 0 mm 4 m/S 755 mmHg 61%
    15:00 +26°C° 0 mm 4 m/S 755 mmHg 63%
    16:00 +26°C° 0 mm 4 m/S 755 mmHg 65%
    17:00 +25°C° 0 mm 4 m/S 755 mmHg 71%
    18:00 +23°C° 0 mm 4 m/S 755 mmHg 76%
    19:00 +21°C° 0 mm 3 m/S 756 mmHg 82%
    20:00 +21°C° 0 mm 3 m/S 756 mmHg 83%
    21:00 +21°C° 0 mm 3 m/S 756 mmHg 85%
    22:00 +20°C° 0 mm 3 m/S 756 mmHg 87%
    23:00 +20°C° 0 mm 3 m/S 756 mmHg 88%

    1 Juni, Montag

    Zeit Temperatur Niederschläge Wind Luftdruck Luftfeuchtigkeit
    00:00 +20°C° 0 mm 3 m/S 756 mmHg 90%
    01:00 +19°C° 0 mm 3 m/S 756 mmHg 92%
    02:00 +19°C° 0.1 mm 3 m/S 755 mmHg 92%
    03:00 +19°C° 0.1 mm 2 m/S 755 mmHg 92%
    04:00 +18°C° 0.1 mm 2 m/S 755 mmHg 93%
    05:00 +18°C° 0 mm 2 m/S 755 mmHg 92%
    06:00 +18°C° 0 mm 2 m/S 756 mmHg 92%
    07:00 +18°C° 0 mm 2 m/S 756 mmHg 91%
    08:00 +20°C° 0 mm 2 m/S 756 mmHg 82%
    09:00 +23°C° 0 mm 2 m/S 756 mmHg 73%
    10:00 +25°C° 0 mm 2 m/S 757 mmHg 63%
    11:00 +26°C° 0 mm 2 m/S 756 mmHg 60%
    12:00 +27°C° 0 mm 2 m/S 755 mmHg 58%
    13:00 +27°C° 0 mm 2 m/S 755 mmHg 55%
    14:00 +27°C° 0.1 mm 2 m/S 754 mmHg 60%
    15:00 +26°C° 0.1 mm 2 m/S 754 mmHg 64%
    16:00 +25°C° 0.1 mm 2 m/S 754 mmHg 69%
    17:00 +24°C° 0.1 mm 2 m/S 754 mmHg 75%
    18:00 +23°C° 0.1 mm 2 m/S 755 mmHg 80%
    19:00 +21°C° 0.1 mm 1 m/S 755 mmHg 86%
    20:00 +21°C° 0 mm 1 m/S 756 mmHg 85%
    21:00 +21°C° 0 mm 1 m/S 756 mmHg 84%
    22:00 +20°C° 0 mm 1 m/S 756 mmHg 83%
    23:00 +20°C° 0 mm 1 m/S 756 mmHg 80%

    2 Juni, Dienstag

    Zeit Temperatur Niederschläge Wind Luftdruck Luftfeuchtigkeit
    00:00 +19°C° 0 mm 1 m/S 756 mmHg 78%
    01:00 +18°C° 0 mm 2 m/S 756 mmHg 75%
    02:00 +18°C° 0 mm 2 m/S 756 mmHg 74%
    03:00 +17°C° 0 mm 2 m/S 755 mmHg 73%
    04:00 +17°C° 0 mm 2 m/S 755 mmHg 72%
    05:00 +17°C° 0 mm 2 m/S 756 mmHg 72%
    06:00 +17°C° 0 mm 2 m/S 756 mmHg 71%
    07:00 +17°C° 0 mm 2 m/S 757 mmHg 71%
    08:00 +19°C° 0 mm 2 m/S 757 mmHg 64%
    09:00 +21°C° 0 mm 2 m/S 757 mmHg 57%
    10:00 +25°C° 0 mm 2 m/S 757 mmHg 50%
    11:00 +26°C° 0 mm 2 m/S 757 mmHg 46%
    12:00 +27°C° 0 mm 2 m/S 756 mmHg 43%
    13:00 +28°C° 0 mm 2 m/S 756 mmHg 39%
    14:00 +27°C° 0 mm 2 m/S 756 mmHg 41%
    15:00 +27°C° 0 mm 2 m/S 755 mmHg 43%
    16:00 +27°C° 0 mm 2 m/S 755 mmHg 45%
    17:00 +25°C° 0 mm 2 m/S 756 mmHg 50%
    18:00 +23°C° 0 mm 2 m/S 756 mmHg 55%
    19:00 +20°C° 0 mm 2 m/S 757 mmHg 60%
    20:00 +20°C° 0 mm 2 m/S 757 mmHg 61%
    21:00 +19°C° 0 mm 3 m/S 757 mmHg 62%
    22:00 +18°C° 0 mm 3 m/S 758 mmHg 63%
    23:00 +18°C° 0 mm 3 m/S 758 mmHg 63%

    3 Juni, Mittwoch

    Zeit Temperatur Niederschläge Wind Luftdruck Luftfeuchtigkeit
    00:00 +18°C° 0 mm 3 m/S 758 mmHg 63%
    01:00 +17°C° 0 mm 3 m/S 757 mmHg 63%
    02:00 +17°C° 0 mm 3 m/S 757 mmHg 63%
    03:00 +17°C° 0 mm 3 m/S 757 mmHg 64%
    04:00 +16°C° 0 mm 3 m/S 757 mmHg 64%
    05:00 +16°C° 0 mm 3 m/S 758 mmHg 65%
    06:00 +14°C° 0 mm 3 m/S 759 mmHg 67%
    07:00 +14°C° 0 mm 4 m/S 759 mmHg 68%
    08:00 +17°C° 0 mm 4 m/S 759 mmHg 63%
    09:00 +18°C° 0 mm 3 m/S 759 mmHg 57%
    10:00 +20°C° 0 mm 3 m/S 760 mmHg 52%
    11:00 +21°C° 0 mm 3 m/S 759 mmHg 48%
    12:00 +22°C° 0 mm 3 m/S 758 mmHg 43%
    13:00 +24°C° 0 mm 3 m/S 758 mmHg 39%
    14:00 +24°C° 0 mm 3 m/S 758 mmHg 39%
    15:00 +24°C° 0 mm 3 m/S 757 mmHg 39%
    16:00 +24°C° 0 mm 3 m/S 757 mmHg 39%
    17:00 +21°C° 0 mm 3 m/S 758 mmHg 43%
    18:00 +19°C° 0 mm 3 m/S 758 mmHg 48%
    19:00 +18°C° 0 mm 3 m/S 759 mmHg 52%
    20:00 +17°C° 0 mm 3 m/S 759 mmHg 54%
    21:00 +16°C° 0 mm 3 m/S 759 mmHg 56%
    22:00 +14°C° 0 mm 3 m/S 759 mmHg 58%
    23:00 +14°C° 0 mm 3 m/S 759 mmHg 60%
    Mehr zeigen